Flag for France Weather past 2 weeks in Paris, France

Now
36 °F

Clear.


Feels Like: 31 °F
Forecast: 30 / 51 °F
Wind: 6 mph from Northwest

Location: Villacoublay

Current Time: Mar 5, 2015 at 3:53:44 AM

Latest Report: Mar 5, 2015 at 3:00 AM


Visibility: N/A

Pressure: 30.66 "Hg

Humidity: 87%

Dew point: 32 °F

Location of ParisLocation

Historic Weather in Paris — Graph

°F

Paris temperature yesterday

Maximum temperature yesterday: 48 °F (at 3:30 PM)
Minimum temperature yesterday: 32 °F (at 6:00 AM)
Average temperature yesterday: 40 °F

Past Weeks' High & Low Weather Summary

 TemperatureHumidityPressure
High52 °F (Feb 23, 1:00 PM)100% (Feb 18, 4:00 AM)30.72 "Hg (Feb 18, 4:00 AM)
Low30 °F (Feb 22, 6:00 AM)43% (Feb 27, 4:00 PM)29.42 "Hg (Feb 23, 5:30 AM)
Average41 °F82%30.00 "Hg
* Reported Feb 18 2:00 AM — Mar 5 2:30 AM, Paris, Weather by CustomWeather, © 2015

Note: Actual official high and low records may vary slightly from our data, if they occured in-between our weather recording intervals... More about our weather records

Advertising

Paris weather history for previous 24 hours

 ConditionsComfort  
Time TempWeatherWind HumidityBarometerVisibility
2:30 AM
Thu, Mar 5
36 °FClear.6 mph87%30.66 "HgN/A
2:00 AM36 °FClear.7 mph93%30.66 "HgN/A
1:30 AM36 °FClear.8 mph87%30.63 "HgN/A
1:00 AM36 °FClear.8 mph87%30.63 "HgN/A
12:30 AM37 °FClear.9 mph81%30.63 "HgN/A
12:00 AM37 °FClear.7 mph81%30.63 "HgN/A
11:30 PM
Wed, Mar 4
37 °FClear.7 mph81%30.63 "HgN/A
11:00 PM37 °FClear.7 mph81%30.60 "HgN/A
10:00 PM39 °FClear.7 mph81%30.60 "HgN/A
9:30 PM41 °FClear.7 mph70%30.57 "HgN/A
9:00 PM41 °FClear.7 mph76%30.57 "HgN/A
8:30 PM41 °FClear.8 mph76%30.57 "HgN/A
8:00 PM43 °FPassing clouds.6 mph66%30.54 "HgN/A
7:30 PM43 °FPassing clouds.6 mph66%30.54 "HgN/A
7:00 PM43 °FPassing clouds.10 mph66%30.51 "HgN/A
6:30 PM45 °FScattered clouds.9 mph61%30.51 "HgN/A
6:00 PM45 °FPartly sunny.13 mph57%30.48 "HgN/A
5:30 PM45 °FClear.12 mph57%30.48 "HgN/A
5:00 PM46 °FPartly sunny.16 mph50%30.45 "HgN/A
4:30 PM46 °FClear.12 mph50%30.45 "HgN/A
4:00 PM46 °FPassing clouds.13 mph50%30.42 "HgN/A
3:30 PM48 °FPartly sunny.13 mph50%30.42 "HgN/A
2:30 PM45 °FBroken clouds.16 mph57%30.42 "HgN/A
2:00 PM46 °FPartly sunny.15 mph53%30.42 "HgN/A
1:30 PM45 °FPartly sunny.10 mph57%30.42 "HgN/A
1:00 PM46 °FBroken clouds.17 mph62%30.42 "HgN/A
12:30 PM45 °FScattered clouds.15 mph71%30.42 "HgN/A
12:00 PM43 °FPartly sunny.15 mph76%30.42 "HgN/A
11:30 AM43 °FScattered clouds.13 mph76%30.42 "HgN/A
10:30 AM43 °FPassing clouds.9 mph76%30.39 "HgN/A
10:00 AM41 °FScattered clouds.7 mph81%30.39 "HgN/A
9:30 AM39 °FPassing clouds.8 mph81%30.39 "HgN/A
9:00 AM36 °FPartly sunny.7 mph93%30.36 "HgN/A
8:30 AM34 °FBroken clouds.7 mph93%30.36 "HgN/A
8:00 AM32 °FClear.6 mph93%30.36 "HgN/A
7:30 AM32 °FClear.7 mph93%30.33 "HgN/A
7:00 AM32 °FClear.7 mph93%30.33 "HgN/A
6:30 AM32 °FClear.5 mph93%30.33 "HgN/A
6:00 AM32 °FClear.5 mph93%30.30 "HgN/A
5:30 AM34 °FClear.6 mph87%30.30 "HgN/A
5:00 AM36 °FClear.7 mph87%30.30 "HgN/A
4:30 AM36 °FClear.8 mph87%30.30 "HgN/A
4:00 AM36 °FClear.9 mph87%30.27 "HgN/A
3:30 AM36 °FClear.9 mph87%30.27 "HgN/A
3:00 AM36 °FClear.9 mph87%30.27 "HgN/A
Weather by CustomWeather, © 2015

See weather overviewHow to use our weather pages